Time[GMT],chlorophyll[micrograms/liter](3m),turbidity[ntus](3m)
2012-04-16 20:00,0.37,0.16
2012-04-16 21:00,0.52,0.16
2012-04-16 22:00,0.67,0.16
2012-04-16 23:00,0.99,0.16
2012-04-17 00:00,1.03,0.16
2012-04-17 01:00,0.99,0.17
2012-04-17 02:00,0.98,0.16
2012-04-17 03:00,0.95,0.16
2012-04-17 04:00,0.89,0.16
2012-04-17 05:00,0.83,0.15
2012-04-17 06:00,0.76,0.15
2012-04-17 07:00,0.74,0.15
2012-04-17 08:00,0.71,0.15
2012-04-17 09:00,0.67,0.15
2012-04-17 10:00,0.61,0.15
2012-04-17 11:00,0.40,0.15
2012-04-17 12:00,0.26,0.15
2012-04-17 13:00,0.22,0.15
2012-04-17 14:00,0.19,0.15
2012-04-17 15:00,0.21,0.15
2012-04-17 16:00,0.21,0.15
2012-04-17 17:00,0.19,0.15
2012-04-17 18:00,0.18,0.15
2012-04-17 19:00,0.22,0.15
2012-04-17 20:00,0.25,0.15
2012-04-17 21:00,0.23,0.15
2012-04-17 22:00,0.39,0.16
2012-04-17 23:00,0.34,0.15
2012-04-18 00:00,0.35,0.15
2012-04-18 01:00,0.34,0.14
2012-04-18 02:00,0.37,0.14
2012-04-18 03:00,0.44,0.15
2012-04-18 04:00,0.41,0.15
2012-04-18 05:00,0.40,0.15
2012-04-18 06:00,0.41,0.16
2012-04-18 07:00,0.44,0.16
2012-04-18 08:00,0.45,0.16
2012-04-18 09:00,0.48,0.18
2012-04-18 10:00,0.49,0.17
2012-04-18 11:00,0.49,0.17
2012-04-18 12:00,0.23,0.16
2012-04-18 13:00,0.19,0.16
2012-04-18 14:00,0.15,0.14
2012-04-18 15:00,0.13,0.14
2012-04-18 16:00,0.14,0.14
2012-04-18 17:00,0.14,0.14
2012-04-18 18:00,0.15,0.14
2012-04-18 19:00,0.17,0.14
2012-04-18 20:00,0.23,0.14
2012-04-18 21:00,0.26,0.14
2012-04-18 22:00,0.26,0.14
2012-04-18 23:00,0.27,0.14
2012-04-19 00:00,0.30,0.15
2012-04-19 01:00,0.31,0.15
2012-04-19 02:00,0.32,0.15
2012-04-19 03:00,0.32,0.15
2012-04-19 04:00,0.35,0.15
2012-04-19 05:00,0.35,0.15
2012-04-19 06:00,0.35,0.15
2012-04-19 07:00,0.37,0.15
2012-04-19 08:00,0.39,0.16
2012-04-19 09:00,0.39,0.16
2012-04-19 10:00,0.39,0.16
2012-04-19 11:00,0.34,0.15
2012-04-19 12:00,0.25,0.15
2012-04-19 13:00,0.19,0.16
2012-04-19 14:00,0.15,0.14
2012-04-19 15:00,0.14,0.14
2012-04-19 16:00,0.13,0.14
2012-04-19 17:00,0.13,0.14
2012-04-19 18:00,0.13,0.14
2012-04-19 19:00,0.15,0.14
2012-04-19 20:00,0.15,0.14
2012-04-19 21:00,0.19,0.14
2012-04-19 22:00,0.27,0.15
2012-04-19 23:00,0.30,0.15
2012-04-20 00:00,0.30,0.14
2012-04-20 01:00,0.34,0.14
2012-04-20 02:00,0.45,0.15
2012-04-20 03:00,0.44,0.15
2012-04-20 04:00,0.40,0.15
2012-04-20 05:00,0.31,0.14
2012-04-20 06:00,0.28,0.15
2012-04-20 07:00,0.28,0.15
2012-04-20 08:00,0.30,0.15
2012-04-20 09:00,0.32,0.15
2012-04-20 10:00,0.31,0.15
2012-04-20 11:00,0.31,0.15
2012-04-20 12:00,0.21,0.15
2012-04-20 13:00,0.17,0.15
2012-04-20 14:00,0.13,0.14
2012-04-20 15:00,0.12,0.15
2012-04-20 16:00,0.12,0.14
2012-04-20 17:00,0.13,0.14
2012-04-20 18:00,0.10,0.14
2012-04-20 19:00,0.12,0.14
2012-04-20 20:00,0.15,0.14
2012-04-20 21:00,0.17,0.15
2012-04-20 22:00,0.26,0.15
2012-04-20 23:00,0.34,0.18
2012-04-21 00:00,0.34,0.14
2012-04-21 01:00,0.35,0.15
2012-04-21 02:00,0.35,0.15
2012-04-21 03:00,0.34,0.14
2012-04-21 04:00,0.30,0.15
2012-04-21 05:00,0.30,0.15
2012-04-21 06:00,0.35,0.15
2012-04-21 07:00,0.36,0.15
2012-04-21 08:00,0.36,0.15
2012-04-21 09:00,0.40,0.16
2012-04-21 10:00,0.40,0.16
2012-04-21 11:00,0.36,0.15
2012-04-21 12:00,0.31,0.15
2012-04-21 13:00,0.22,0.15
2012-04-21 14:00,0.12,0.14
2012-04-21 15:00,0.12,0.13
2012-04-21 16:00,0.13,0.14
2012-04-21 17:00,0.12,0.14
2012-04-21 18:00,0.14,0.14
2012-04-21 19:00,0.14,0.14
2012-04-21 20:00,0.15,0.15
2012-04-21 21:00,0.23,0.15
2012-04-21 22:00,0.31,0.15
2012-04-21 23:00,0.32,0.15
2012-04-22 00:00,0.31,0.15
2012-04-22 01:00,0.31,0.15
2012-04-22 02:00,0.31,0.15
2012-04-22 03:00,0.32,0.15
2012-04-22 04:00,0.35,0.15
2012-04-22 05:00,0.35,0.15
2012-04-22 06:00,0.36,0.15
2012-04-22 07:00,0.35,0.15
2012-04-22 08:00,0.34,0.15
2012-04-22 09:00,0.34,0.15
2012-04-22 10:00,0.35,0.15
2012-04-22 11:00,0.34,0.15
2012-04-22 12:00,0.31,0.15
2012-04-22 13:00,0.34,0.15
2012-04-22 14:00,0.31,0.15
2012-04-22 15:00,0.41,0.15
2012-04-22 16:00,0.45,0.15
2012-04-22 17:00,0.49,0.16
2012-04-22 18:00,0.50,0.16
2012-04-22 19:00,0.45,0.15
2012-04-22 20:00,0.43,0.15
2012-04-22 21:00,0.41,0.15
2012-04-22 22:00,0.49,0.15
2012-04-22 23:00,0.67,0.16
2012-04-23 00:00,1.02,0.17
2012-04-23 01:00,1.03,0.17
2012-04-23 02:00,0.94,0.17
2012-04-23 03:00,1.04,0.18
2012-04-23 04:00,1.08,0.18
2012-04-23 05:00,1.12,0.19
2012-04-23 06:00,1.07,0.18
2012-04-23 07:00,1.06,0.28
2012-04-23 08:00,0.97,0.18
2012-04-23 09:00,0.92,0.18
2012-04-23 10:00,0.80,0.18
2012-04-23 11:00,0.80,0.18
2012-04-23 12:00,0.77,0.18
2012-04-23 13:00,0.55,0.18
2012-04-23 14:00,0.79,0.18
2012-04-23 15:00,0.85,0.18
2012-04-23 16:00,0.77,0.18
2012-04-23 17:00,0.72,0.18
2012-04-23 18:00,0.79,0.18
2012-04-23 19:00,1.07,0.18
2012-04-23 20:00,1.11,0.19
2012-04-23 21:00,1.02,0.20
2012-04-23 22:00,1.19,0.21
2012-04-23 23:00,1.14,0.21
2012-04-24 00:00,1.07,0.21
2012-04-24 01:00,1.12,0.21
2012-04-24 02:00,1.15,0.21
2012-04-24 03:00,1.12,0.21
2012-04-24 04:00,1.64,0.55
2012-04-24 05:00,1.29,0.45
2012-04-24 06:00,0.84,0.36
2012-04-24 07:00,0.68,0.30
2012-04-24 08:00,0.58,0.29
2012-04-24 09:00,0.57,0.30
2012-04-24 10:00,0.58,0.29
2012-04-24 11:00,0.49,0.28
2012-04-24 12:00,0.43,0.27
2012-04-24 13:00,0.45,0.26
2012-04-24 14:00,0.37,0.25
2012-04-24 15:00,0.31,0.28
2012-04-24 16:00,0.27,0.28
2012-04-24 17:00,0.30,0.28
2012-04-24 18:00,0.28,0.25
2012-04-24 19:00,0.31,0.26
2012-04-24 20:00,0.32,0.26
2012-04-24 21:00,0.45,0.29
2012-04-24 22:00,0.76,0.30
2012-04-24 23:00,0.75,0.31
2012-04-25 00:00,0.72,0.30
2012-04-25 01:00,0.75,0.30
2012-04-25 02:00,0.76,0.29
2012-04-25 03:00,0.77,0.30
2012-04-25 04:00,0.67,0.29
2012-04-25 05:00,0.57,0.29
2012-04-25 06:00,0.52,0.28
2012-04-25 07:00,0.50,0.28
2012-04-25 08:00,0.49,0.28
2012-04-25 09:00,0.48,0.27
2012-04-25 10:00,0.45,0.27
2012-04-25 11:00,0.45,0.27
2012-04-25 12:00,0.31,0.26
2012-04-25 13:00,0.25,0.26
2012-04-25 14:00,0.23,0.25
2012-04-25 15:00,0.22,0.25
2012-04-25 16:00,0.21,0.25
2012-04-25 17:00,0.17,0.24
2012-04-25 18:00,0.18,0.25
2012-04-25 19:00,0.59,0.34
2012-04-25 20:00,0.63,0.42
2012-04-25 21:00,1.52,0.51
2012-04-25 22:00,1.54,0.47
2012-04-25 23:00,0.93,0.35
2012-04-26 00:00,0.59,0.28
2012-04-26 01:00,0.53,0.28
2012-04-26 02:00,0.46,0.26
2012-04-26 03:00,0.54,0.28
2012-04-26 04:00,1.12,0.51
2012-04-26 05:00,1.56,0.75
2012-04-26 06:00,1.52,0.73
2012-04-26 07:00,1.56,0.72
2012-04-26 08:00,1.44,0.69
2012-04-26 09:00,1.55,0.67
2012-04-26 10:00,1.34,0.61
2012-04-26 11:00,1.28,0.54
2012-04-26 12:00,0.88,0.51
2012-04-26 13:00,0.34,0.32
2012-04-26 14:00,0.21,0.25
2012-04-26 15:00,0.21,0.25
2012-04-26 16:00,0.22,0.25
2012-04-26 17:00,0.21,0.25
2012-04-26 18:00,0.26,0.24
2012-04-26 19:00,0.32,0.23
2012-04-26 20:00,0.41,0.23
2012-04-26 21:00,0.59,0.25
2012-04-26 22:00,0.64,0.26
2012-04-26 23:00,0.59,0.25
2012-04-27 00:00,0.58,0.26
2012-04-27 01:00,0.58,0.26
2012-04-27 02:00,0.53,0.26
2012-04-27 03:00,0.57,0.26
2012-04-27 04:00,0.57,0.26
2012-04-27 05:00,0.57,0.28
2012-04-27 06:00,0.58,0.29
2012-04-27 07:00,0.71,0.26
2012-04-27 08:00,0.67,0.25
2012-04-27 09:00,0.67,0.23
2012-04-27 10:00,0.64,0.24
2012-04-27 11:00,0.67,0.24
2012-04-27 12:00,0.68,0.24
2012-04-27 13:00,0.44,0.24
2012-04-27 14:00,0.54,0.25
2012-04-27 15:00,0.40,0.24
2012-04-27 16:00,0.57,0.25
2012-04-27 17:00,0.44,0.28
2012-04-27 18:00,0.45,0.31
2012-04-27 19:00,0.41,0.29
2012-04-27 20:00,0.46,0.29
2012-04-27 21:00,0.58,0.33
2012-04-27 22:00,0.64,0.31
2012-04-27 23:00,1.08,0.29
2012-04-28 00:00,1.34,0.28
2012-04-28 01:00,1.35,0.29
2012-04-28 02:00,1.38,0.28
2012-04-28 03:00,1.41,0.28
2012-04-28 04:00,1.44,0.28
2012-04-28 05:00,1.57,0.28
2012-04-28 06:00,1.56,0.28
2012-04-28 07:00,1.78,0.28
2012-04-28 08:00,2.48,0.29
2012-04-28 09:00,2.46,0.29
2012-04-28 10:00,2.50,0.29
2012-04-28 11:00,1.93,0.30
2012-04-28 12:00,1.32,0.31
2012-04-28 13:00,1.17,0.31
2012-04-28 14:00,0.97,0.31
2012-04-28 15:00,0.85,0.31
2012-04-28 16:00,0.84,0.32
2012-04-28 17:00,0.85,0.32
2012-04-28 18:00,0.77,0.33
2012-04-28 19:00,0.74,0.34
2012-04-28 20:00,0.86,0.34
2012-04-28 21:00,1.08,0.34
2012-04-28 22:00,1.77,0.34
2012-04-28 23:00,1.66,0.35
2012-04-29 00:00,1.33,0.33
2012-04-29 01:00,1.32,0.30
2012-04-29 02:00,1.83,0.30
2012-04-29 03:00,1.82,0.29
2012-04-29 04:00,0.88,0.29
2012-04-29 05:00,1.08,0.32
2012-04-29 06:00,1.12,0.32
2012-04-29 07:00,0.98,0.31
2012-04-29 08:00,1.14,0.31
2012-04-29 09:00,1.48,0.29
2012-04-29 10:00,1.61,0.29
2012-04-29 11:00,1.73,0.28
2012-04-29 12:00,0.98,0.29
2012-04-29 13:00,0.79,0.28
2012-04-29 14:00,0.67,0.28
2012-04-29 15:00,0.75,0.27
2012-04-29 16:00,0.80,0.26
2012-04-29 17:00,0.81,0.28
2012-04-29 18:00,0.79,0.26
2012-04-29 19:00,0.71,0.27
2012-04-29 20:00,0.83,0.28
2012-04-29 21:00,0.99,0.28
2012-04-29 22:00,1.91,0.29
2012-04-29 23:00,2.40,0.29
2012-04-30 00:00,2.26,0.29
2012-04-30 01:00,2.09,0.28
2012-04-30 02:00,2.21,0.29
2012-04-30 03:00,2.19,0.28
2012-04-30 04:00,2.27,0.29
2012-04-30 05:00,1.65,0.29
2012-04-30 06:00,1.73,0.28
2012-04-30 07:00,2.00,0.28
2012-04-30 08:00,2.52,0.29
2012-04-30 09:00,2.59,0.29
2012-04-30 10:00,2.35,0.28
2012-04-30 11:00,2.23,0.30
2012-04-30 12:00,1.69,0.29
2012-04-30 13:00,1.60,0.29
2012-04-30 14:00,1.01,0.26
2012-04-30 15:00,0.86,0.28
2012-04-30 16:00,0.72,0.26
2012-04-30 17:00,0.70,0.26
2012-04-30 18:00,0.71,0.27
2012-04-30 19:00,1.17,0.31
2012-04-30 20:00,1.37,0.30
2012-04-30 21:00,2.09,0.30
2012-04-30 22:00,2.59,0.31
2012-04-30 23:00,2.72,0.32
2012-05-01 00:00,2.40,0.29
2012-05-01 01:00,2.36,0.29
2012-05-01 02:00,1.99,0.28
2012-05-01 03:00,1.83,0.28
2012-05-01 04:00,2.03,0.27
2012-05-01 05:00,1.91,0.26
2012-05-01 06:00,1.95,0.26
2012-05-01 07:00,1.92,0.27
2012-05-01 08:00,1.97,0.28
2012-05-01 09:00,1.82,0.27
2012-05-01 10:00,1.77,0.28
2012-05-01 11:00,1.70,0.28
2012-05-01 12:00,1.87,0.29
2012-05-01 13:00,1.87,0.28
2012-05-01 14:00,1.99,0.29
2012-05-01 15:00,2.04,0.29
2012-05-01 16:00,2.01,0.29
2012-05-01 17:00,2.13,0.29
2012-05-01 18:00,2.19,0.29
2012-05-01 19:00,2.14,0.29
2012-05-01 20:00,2.15,0.29
2012-05-01 21:00,2.22,0.29
2012-05-01 22:00,2.26,0.29
2012-05-01 23:00,2.15,0.29
2012-05-02 00:00,2.05,0.29
2012-05-02 01:00,1.99,0.28
2012-05-02 02:00,1.95,0.27
2012-05-02 03:00,2.05,0.26
2012-05-02 04:00,1.99,0.25
2012-05-02 05:00,2.00,0.24
2012-05-02 06:00,1.95,0.24
2012-05-02 07:00,1.95,0.24
2012-05-02 08:00,1.99,0.24
2012-05-02 09:00,1.92,0.24
2012-05-02 10:00,1.91,0.25
2012-05-02 11:00,1.83,0.26
2012-05-02 12:00,1.68,0.26
2012-05-02 13:00,1.64,0.26
2012-05-02 14:00,1.39,0.26
2012-05-02 15:00,0.99,0.25
2012-05-02 16:00,0.84,0.25
2012-05-02 17:00,0.76,0.24
2012-05-02 18:00,0.79,0.23
2012-05-02 19:00,0.75,0.23
2012-05-02 20:00,1.02,0.24
2012-05-02 21:00,1.43,0.25
2012-05-02 22:00,1.83,0.26
2012-05-02 23:00,1.77,0.24
2012-05-03 00:00,1.64,0.23
2012-05-03 01:00,1.65,0.24
2012-05-03 02:00,1.66,0.24
2012-05-03 03:00,1.55,0.23
2012-05-03 04:00,1.41,0.22
2012-05-03 05:00,1.41,0.22
2012-05-03 06:00,1.37,0.22
2012-05-03 07:00,1.43,0.22
2012-05-03 08:00,1.34,0.22
2012-05-03 09:00,1.32,0.22
2012-05-03 10:00,1.16,0.22
2012-05-03 11:00,1.23,0.22
2012-05-03 12:00,1.02,0.22
2012-05-03 13:00,0.94,0.22
2012-05-03 14:00,0.77,0.22
2012-05-03 15:00,0.76,0.22
2012-05-03 16:00,0.53,0.22
2012-05-03 17:00,0.36,0.21
2012-05-03 18:00,0.39,0.21
2012-05-03 19:00,0.40,0.21
2012-05-03 20:00,0.44,0.20
2012-05-03 21:00,0.67,0.21
2012-05-03 22:00,0.90,0.22
2012-05-03 23:00,1.08,0.22
2012-05-04 00:00,1.02,0.22
2012-05-04 01:00,0.95,0.21
2012-05-04 02:00,0.86,0.21
2012-05-04 03:00,0.86,0.21
2012-05-04 04:00,0.77,0.21
2012-05-04 05:00,0.79,0.21
2012-05-04 06:00,0.80,0.22
2012-05-04 07:00,0.72,0.21
2012-05-04 08:00,0.83,0.22
2012-05-04 09:00,0.89,0.22
2012-05-04 10:00,0.86,0.24
2012-05-04 11:00,0.93,0.25
2012-05-04 12:00,0.83,0.24
2012-05-04 13:00,0.80,0.24
2012-05-04 14:00,0.75,0.24
2012-05-04 15:00,0.94,0.26
2012-05-04 16:00,0.94,0.26
2012-05-04 17:00,1.14,0.28
2012-05-04 18:00,1.48,0.32
2012-05-04 19:00,1.30,0.35
2012-05-04 20:00,1.50,0.35
2012-05-04 21:00,1.83,0.39
2012-05-04 22:00,1.54,0.35
2012-05-04 23:00,1.50,0.32
2012-05-05 00:00,1.12,0.28
2012-05-05 01:00,1.02,0.27
2012-05-05 02:00,0.93,0.26
2012-05-05 03:00,0.97,0.27
2012-05-05 04:00,1.02,0.27
2012-05-05 05:00,0.98,0.26
2012-05-05 06:00,0.93,0.26
2012-05-05 07:00,0.92,0.25
2012-05-05 08:00,0.94,0.25
2012-05-05 09:00,0.97,0.25
2012-05-05 10:00,1.02,0.26
2012-05-05 11:00,1.03,0.26
2012-05-05 12:00,0.92,0.25
2012-05-05 13:00,0.85,0.24
2012-05-05 14:00,0.76,0.25
2012-05-05 15:00,0.53,0.24
2012-05-05 16:00,0.35,0.22
2012-05-05 17:00,0.35,0.21
2012-05-05 18:00,0.39,0.22
2012-05-05 19:00,0.34,0.22
2012-05-05 20:00,0.48,0.22
2012-05-05 21:00,0.46,0.21
2012-05-05 22:00,0.49,0.21
2012-05-05 23:00,0.54,0.22
2012-05-06 00:00,0.61,0.22
2012-05-06 01:00,0.71,0.24
2012-05-06 02:00,0.68,0.24
2012-05-06 03:00,0.66,0.23
2012-05-06 04:00,0.67,0.22
2012-05-06 05:00,0.68,0.23
2012-05-06 06:00,0.61,0.22
2012-05-06 07:00,0.59,0.24
2012-05-06 08:00,0.55,0.24
2012-05-06 09:00,0.68,0.24
2012-05-06 10:00,0.64,0.24
2012-05-06 11:00,0.64,0.25
2012-05-06 12:00,0.50,0.24
2012-05-06 13:00,0.40,0.24
2012-05-06 14:00,0.43,0.22
2012-05-06 15:00,0.44,0.21
2012-05-06 16:00,0.27,0.21
2012-05-06 17:00,0.28,0.21
2012-05-06 18:00,0.25,0.19
2012-05-06 19:00,0.26,0.19
2012-05-06 20:00,0.26,0.20
2012-05-06 21:00,0.32,0.21
2012-05-06 22:00,0.45,0.21
2012-05-06 23:00,0.50,0.20
2012-05-07 00:00,0.46,0.19
2012-05-07 01:00,0.62,0.22
2012-05-07 02:00,0.54,0.22
2012-05-07 03:00,0.58,0.22
2012-05-07 04:00,0.58,0.21
2012-05-07 05:00,0.62,0.22
2012-05-07 06:00,0.61,0.22
2012-05-07 07:00,0.58,0.22
2012-05-07 08:00,0.55,0.22
2012-05-07 09:00,0.55,0.22
2012-05-07 10:00,0.48,0.21
2012-05-07 11:00,0.50,0.22
2012-05-07 12:00,0.39,0.22
2012-05-07 13:00,0.44,0.25
2012-05-07 14:00,0.27,0.21
2012-05-07 15:00,0.27,0.21
2012-05-07 16:00,0.26,0.20
2012-05-07 17:00,0.26,0.20
2012-05-07 18:00,0.25,0.19
2012-05-07 19:00,0.26,0.20
2012-05-07 20:00,0.35,0.21
2012-05-07 21:00,0.44,0.22
2012-05-07 22:00,0.66,0.22
2012-05-07 23:00,0.59,0.21
2012-05-08 00:00,0.55,0.21
2012-05-08 01:00,0.57,0.22
2012-05-08 02:00,0.57,0.21
2012-05-08 03:00,0.59,0.21
2012-05-08 04:00,0.61,0.21
2012-05-08 05:00,0.62,0.22
2012-05-08 06:00,0.62,0.21
2012-05-08 07:00,0.66,0.22
2012-05-08 08:00,0.71,0.22
2012-05-08 09:00,0.77,0.23
2012-05-08 10:00,0.84,0.24
2012-05-08 11:00,0.98,0.25
2012-05-08 12:00,0.98,0.25
2012-05-08 13:00,1.02,0.25
2012-05-08 14:00,1.12,0.25
2012-05-08 15:00,1.17,0.25
2012-05-08 16:00,1.21,0.25
2012-05-08 17:00,1.29,0.26
2012-05-08 18:00,1.26,0.25
2012-05-08 19:00,1.37,0.26
2012-05-08 20:00,1.11,0.24
2012-05-08 21:00,1.04,0.24
2012-05-08 22:00,1.15,0.24
2012-05-08 23:00,1.28,0.25
2012-05-09 00:00,1.24,0.24
2012-05-09 01:00,1.20,0.25
2012-05-09 02:00,1.23,0.25
2012-05-09 03:00,1.23,0.25
2012-05-09 04:00,1.19,0.25
2012-05-09 05:00,1.17,0.24
2012-05-09 06:00,1.19,0.24
2012-05-09 07:00,1.23,0.24
2012-05-09 08:00,1.29,0.24
2012-05-09 09:00,1.29,0.24
2012-05-09 10:00,1.26,0.24
2012-05-09 11:00,1.26,0.24
2012-05-09 12:00,1.30,0.24
2012-05-09 13:00,1.33,0.24
2012-05-09 14:00,1.26,0.24
2012-05-09 15:00,1.42,0.24
2012-05-09 16:00,1.06,0.24
2012-05-09 17:00,1.08,0.23
2012-05-09 18:00,0.99,0.23
2012-05-09 19:00,1.51,0.24
2012-05-09 20:00,1.52,0.24
2012-05-09 21:00,1.52,0.25
2012-05-09 22:00,1.57,0.26
2012-05-09 23:00,1.57,0.27
2012-05-10 00:00,1.47,0.27
2012-05-10 01:00,1.47,0.28
2012-05-10 02:00,1.56,0.29
2012-05-10 03:00,1.57,0.28
2012-05-10 04:00,1.41,0.28
2012-05-10 05:00,1.46,0.29
2012-05-10 06:00,1.47,0.28
2012-05-10 07:00,1.50,0.28
2012-05-10 08:00,1.39,0.27
2012-05-10 09:00,1.39,0.27
2012-05-10 10:00,1.50,0.31
2012-05-10 11:00,1.92,0.32
2012-05-10 12:00,1.60,0.29
2012-05-10 13:00,1.26,0.28
2012-05-10 14:00,1.46,0.27
2012-05-10 15:00,0.90,0.24
2012-05-10 16:00,0.37,0.20
2012-05-10 17:00,0.45,0.21
2012-05-10 18:00,0.45,0.22
2012-05-10 19:00,0.92,0.23
2012-05-10 20:00,0.79,0.22
2012-05-10 21:00,0.77,0.20
2012-05-10 22:00,0.80,0.20
2012-05-10 23:00,0.74,0.19
2012-05-11 00:00,0.67,0.21
2012-05-11 01:00,0.64,0.21
2012-05-11 02:00,0.64,0.21
2012-05-11 03:00,0.68,0.22
2012-05-11 04:00,0.71,0.22
2012-05-11 05:00,0.80,0.23
2012-05-11 06:00,0.90,0.23
2012-05-11 07:00,0.77,0.21
2012-05-11 08:00,0.90,0.22
2012-05-11 09:00,1.04,0.23
2012-05-11 10:00,1.15,0.23
2012-05-11 11:00,0.80,0.24
2012-05-11 12:00,0.76,0.25
2012-05-11 13:00,0.70,0.25
2012-05-11 14:00,0.72,0.31
2012-05-11 15:00,0.64,0.30
2012-05-11 16:00,0.89,0.30
2012-05-11 17:00,0.90,0.29
2012-05-11 18:00,1.35,0.29
2012-05-11 19:00,1.30,0.29
2012-05-11 20:00,0.77,0.28
2012-05-11 21:00,0.88,0.26
2012-05-11 22:00,0.94,0.27
2012-05-11 23:00,1.17,0.27
2012-05-12 00:00,1.14,0.27
2012-05-12 01:00,1.14,0.27
2012-05-12 02:00,1.07,0.27
2012-05-12 03:00,1.11,0.27
2012-05-12 04:00,1.11,0.28
2012-05-12 05:00,1.08,0.28
2012-05-12 06:00,1.06,0.28
2012-05-12 07:00,0.94,0.25
2012-05-12 08:00,0.88,0.25
2012-05-12 09:00,0.99,0.26
2012-05-12 10:00,1.03,0.26
2012-05-12 11:00,0.81,0.26
2012-05-12 12:00,0.70,0.28
2012-05-12 13:00,0.63,0.29
2012-05-12 14:00,0.57,0.31
2012-05-12 15:00,0.76,0.38
2012-05-12 16:00,1.06,0.42
2012-05-12 17:00,1.37,0.47
2012-05-12 18:00,1.43,0.42
2012-05-12 19:00,1.38,0.38
2012-05-12 20:00,1.75,0.44
2012-05-12 21:00,1.25,0.32
2012-05-12 22:00,2.32,0.39
2012-05-12 23:00,2.54,0.43
2012-05-13 00:00,2.50,0.44
2012-05-13 01:00,3.29,0.48
2012-05-13 02:00,2.09,0.44
2012-05-13 03:00,1.87,0.39
2012-05-13 04:00,1.78,0.37
2012-05-13 05:00,2.03,0.39
2012-05-13 06:00,2.10,0.44
2012-05-13 07:00,2.23,0.47
2012-05-13 08:00,2.15,0.46
2012-05-13 09:00,1.96,0.42
2012-05-13 10:00,2.08,0.42
2012-05-13 11:00,3.08,0.48
2012-05-13 12:00,1.84,0.48
2012-05-13 13:00,1.44,0.47
2012-05-13 14:00,1.91,0.44
2012-05-13 15:00,2.43,0.49
2012-05-13 16:00,1.39,0.42
2012-05-13 17:00,1.79,0.48
2012-05-13 18:00,1.96,0.49
2012-05-13 19:00,2.09,0.51
2012-05-13 20:00,2.89,0.52
2012-05-13 21:00,3.10,0.50
2012-05-13 22:00,3.87,0.52
2012-05-13 23:00,3.25,0.51
2012-05-14 00:00,3.03,0.49
2012-05-14 01:00,2.94,0.49
2012-05-14 02:00,2.76,0.48
2012-05-14 03:00,2.54,0.48
2012-05-14 04:00,2.48,0.47
2012-05-14 05:00,2.41,0.48
2012-05-14 06:00,2.18,0.47
2012-05-14 07:00,1.73,0.44
2012-05-14 08:00,1.38,0.41
2012-05-14 09:00,1.17,0.38
2012-05-14 10:00,1.04,0.34
2012-05-14 11:00,1.20,0.35
2012-05-14 12:00,1.68,0.38
2012-05-14 13:00,1.79,0.41
2012-05-14 14:00,1.95,0.44
2012-05-14 15:00,2.04,0.46
2012-05-14 16:00,1.04,0.45
2012-05-14 17:00,1.10,0.41
2012-05-14 18:00,1.11,0.44
2012-05-14 19:00,1.39,0.40
2012-05-14 20:00,2.15,0.42
2012-05-14 21:00,1.96,0.41
2012-05-14 22:00,1.93,0.40
2012-05-14 23:00,1.59,0.36
2012-05-15 00:00,1.30,0.31
2012-05-15 01:00,1.48,0.34
2012-05-15 02:00,1.51,0.35
2012-05-15 03:00,1.42,0.34
2012-05-15 04:00,1.90,0.38
2012-05-15 05:00,2.54,0.46
2012-05-15 06:00,2.84,0.48
2012-05-15 07:00,2.03,0.39
2012-05-15 08:00,1.24,0.30
2012-05-15 09:00,1.15,0.29
2012-05-15 10:00,1.01,0.26
2012-05-15 11:00,1.26,0.29
2012-05-15 12:00,0.70,0.26
2012-05-15 13:00,1.81,0.42
2012-05-15 14:00,1.70,0.45
2012-05-15 15:00,1.51,0.46
2012-05-15 16:00,1.39,0.47
2012-05-15 17:00,1.37,0.46
2012-05-15 18:00,1.93,0.45
2012-05-15 19:00,2.45,0.45
2012-05-15 20:00,2.63,0.47
2012-05-15 21:00,2.66,0.46
2012-05-15 22:00,2.45,0.45
2012-05-15 23:00,2.40,0.45
2012-05-16 00:00,2.39,0.46
2012-05-16 01:00,2.35,0.46
2012-05-16 02:00,2.09,0.43
2012-05-16 03:00,1.97,0.41
2012-05-16 04:00,1.93,0.41
2012-05-16 05:00,1.59,0.38
2012-05-16 06:00,1.48,0.37
2012-05-16 07:00,1.37,0.36
2012-05-16 08:00,1.29,0.35
2012-05-16 09:00,1.24,0.35
2012-05-16 10:00,1.17,0.35
2012-05-16 11:00,1.19,0.35
2012-05-16 12:00,1.21,0.35
2012-05-16 13:00,1.38,0.36
2012-05-16 14:00,1.30,0.34
2012-05-16 15:00,1.41,0.35
2012-05-16 16:00,1.26,0.36
2012-05-16 17:00,1.16,0.34
2012-05-16 18:00,2.84,0.39
2012-05-16 19:00,1.15,0.38
2012-05-16 20:00,1.29,0.32
2012-05-16 21:00,1.34,0.39
2012-05-16 22:00,1.44,0.34
2012-05-16 23:00,1.96,0.38
2012-05-17 00:00,1.51,0.35
2012-05-17 01:00,1.47,0.34
2012-05-17 02:00,1.39,0.33
2012-05-17 03:00,1.30,0.32
2012-05-17 04:00,1.47,0.34
2012-05-17 05:00,1.30,0.32
2012-05-17 06:00,1.24,0.32
2012-05-17 07:00,1.16,0.31
2012-05-17 08:00,1.04,0.29
2012-05-17 09:00,1.10,0.29
2012-05-17 10:00,1.50,0.32
2012-05-17 11:00,1.60,0.34
2012-05-17 12:00,1.32,0.34
2012-05-17 13:00,1.04,0.34
2012-05-17 14:00,0.89,0.34
2012-05-17 15:00,0.81,0.34
2012-05-17 16:00,0.84,0.34
2012-05-17 17:00,0.86,0.35
2012-05-17 18:00,0.81,0.34
2012-05-17 19:00,0.76,0.34
2012-05-17 20:00,0.76,0.32
2012-05-17 21:00,0.89,0.34
2012-05-17 22:00,1.20,0.34
2012-05-17 23:00,1.21,0.31
2012-05-18 00:00,1.55,0.33
2012-05-18 01:00,1.75,0.34
2012-05-18 02:00,1.88,0.37
2012-05-18 03:00,1.72,0.36
2012-05-18 04:00,1.50,0.35
2012-05-18 05:00,1.21,0.32
2012-05-18 06:00,1.21,0.31
2012-05-18 07:00,1.25,0.31
2012-05-18 08:00,1.19,0.31
2012-05-18 09:00,1.01,0.28
2012-05-18 10:00,1.61,0.34
2012-05-18 11:00,1.63,0.35
2012-05-18 12:00,1.08,0.32
2012-05-18 13:00,0.81,0.32
2012-05-18 14:00,0.68,0.29
2012-05-18 15:00,0.80,0.29
2012-05-18 16:00,0.71,0.28
2012-05-18 17:00,0.70,0.28
2012-05-18 18:00,0.79,0.31
2012-05-18 19:00,0.75,0.31
2012-05-18 20:00,0.79,0.31
2012-05-18 21:00,0.81,0.30
2012-05-18 22:00,1.25,0.30
2012-05-18 23:00,1.52,0.32
2012-05-19 00:00,1.52,0.33
2012-05-19 01:00,1.51,0.32
2012-05-19 02:00,1.50,0.32
2012-05-19 03:00,1.61,0.34
2012-05-19 04:00,1.66,0.34
2012-05-19 05:00,1.68,0.34
2012-05-19 06:00,1.59,0.34
2012-05-19 07:00,1.56,0.34
2012-05-19 08:00,1.51,0.33
2012-05-19 09:00,1.43,0.32
2012-05-19 10:00,1.42,0.33
2012-05-19 11:00,1.19,0.32
2012-05-19 12:00,0.76,0.31
2012-05-19 13:00,0.71,0.32
2012-05-19 14:00,0.70,0.34
2012-05-19 15:00,0.74,0.33
2012-05-19 16:00,0.75,0.32
2012-05-19 17:00,0.74,0.32
2012-05-19 18:00,0.58,0.31
2012-05-19 19:00,0.54,0.32
2012-05-19 20:00,0.59,0.31
2012-05-19 21:00,0.66,0.29
2012-05-19 22:00,0.95,0.30
2012-05-19 23:00,1.04,0.29
2012-05-20 00:00,1.01,0.30
2012-05-20 01:00,1.01,0.31
2012-05-20 02:00,0.97,0.29
2012-05-20 03:00,0.97,0.29
2012-05-20 04:00,0.95,0.28
2012-05-20 05:00,0.92,0.27
2012-05-20 06:00,0.86,0.26
2012-05-20 07:00,0.84,0.25
2012-05-20 08:00,0.95,0.26
2012-05-20 09:00,0.81,0.26
2012-05-20 10:00,0.83,0.25
2012-05-20 11:00,0.83,0.25
2012-05-20 12:00,0.58,0.26
2012-05-20 13:00,0.52,0.26
2012-05-20 14:00,0.49,0.26
2012-05-20 15:00,0.48,0.26
2012-05-20 16:00,0.45,0.26
2012-05-20 17:00,0.43,0.25
2012-05-20 18:00,0.41,0.27
2012-05-20 19:00,0.40,0.26
2012-05-20 20:00,0.45,0.26
2012-05-20 21:00,0.68,0.30
2012-05-20 22:00,0.84,0.26
2012-05-20 23:00,0.85,0.26
2012-05-21 00:00,0.80,0.26
2012-05-21 01:00,0.88,0.26
2012-05-21 02:00,0.81,0.26
2012-05-21 03:00,0.75,0.25
2012-05-21 04:00,0.75,0.25
2012-05-21 05:00,0.79,0.26
2012-05-21 06:00,0.79,0.26
2012-05-21 07:00,0.85,0.28
2012-05-21 08:00,0.85,0.27
2012-05-21 09:00,0.81,0.27
2012-05-21 10:00,0.81,0.27
2012-05-21 11:00,0.85,0.27
2012-05-21 12:00,0.84,0.28
2012-05-21 13:00,0.76,0.26
2012-05-21 14:00,0.80,0.26
2012-05-21 15:00,0.67,0.26
2012-05-21 16:00,0.67,0.26
2012-05-21 17:00,0.81,0.26
2012-05-21 18:00,0.80,0.28
2012-05-21 19:00,0.95,0.28
2012-05-21 20:00,1.08,0.28
2012-05-21 21:00,1.08,0.28
2012-05-21 22:00,1.08,0.28
2012-05-21 23:00,1.06,0.28
2012-05-22 00:00,0.98,0.26
2012-05-22 01:00,0.98,0.27
2012-05-22 02:00,0.99,0.27
2012-05-22 03:00,0.98,0.27
2012-05-22 04:00,0.98,0.26
2012-05-22 05:00,0.94,0.27
2012-05-22 06:00,0.93,0.27
2012-05-22 07:00,0.97,0.28
2012-05-22 08:00,1.03,0.29
2012-05-22 09:00,1.02,0.32